Location: Blankensee
(53.5126°N, 14.3055°E)
Time: 16:49:35
(UTC+00:00)

CZ-2D R/B - Pass Details

Date: 08 August 2020
Orbit: 792 x 845 km, 98.7° (Epoch: 19 September)

Event Time Altitude Azimuth Distance (km) Brightness Sun altitude
Rises 01:45:57 0° 12° (NNE) 3,409 6.6 -12.7°
Reaches altitude 10° 01:48:24 10° 7° (N) 2,474 5.6 -12.5°
Maximum altitude 01:53:35 45° 296° (WNW) 1,150 2.8 -12.0°
Enters shadow 01:57:48 15° 230° (SW) 2,119 3.6 -11.6°
